GLOBALSTAR M057 (25943 NORAD) Tracking and Keplerian Element Data

This shows tracking and keplerian element data for the satellite.

Feedback or suggestion? Click here.




ElementValue
Catalog25943
NameGLOBALSTAR M057
Epoch Orbit18967
Epoch Day353.76783761
Epoch Year2025
RAAN181.5232
Inclination51.995
Eccentricity0.0003316
Argument of Perigee51.3111
Mean Anonmoly308.8035
Mean Motion12.24832245
Decay Rate-7.1E-07
L11 25943U 99058A 25353.76783761 -.00000071 00000+0 19739-3 0 9997
L22 25943 51.9950 181.5232 0003316 51.3111 308.8035 12.24832245189672



Live tracking and technical data element details for GLOBALSTAR M057 (NORAD 25943). GLOBALSTAR M057 can be tracked NOW for your location showing map with azimuth and elevation plus other details from your city location.







IsCatalogInMostPopularTable: catalog: 25943, numindb: 383
Update: records affected: 1



GetName: 25943 GLOBALSTAR M057

Hit Count: updated at: Mon, 18 May 2026 08:58:46 GMT